Location: Unspecified
(43.4680°N, 87.1740°E)
Time: 04:23:42
(UTC+00:00)

COSMOS 2455 - Pass Details

Date: 17 April 2021
Orbit: 902 x 907 km, 67.1° (Epoch: 16 May)

Event Time Altitude Azimuth Distance (km) Brightness Sun altitude
Exits shadow 17:49:16 32° 303° (WNW) 1,524 4.2 -35.6°
Maximum altitude 17:49:47 32° 313° (NW) 1,510 4.3 -35.6°
Drops below altitude 10° 17:55:08 10° 16° (NNE) 2,598 5.9 -35.7°
Sets 17:57:57 0° 26° (NNE) 3,543 6.7 -35.7°
